TimeEDT,TemperatureF,Dew PointF,Humidity,Sea Level PressureIn,VisibilityMPH,Wind Direction,Wind SpeedMPH,Gust SpeedMPH,PrecipitationIn,Events,Conditions,WindDirDegrees,DateUTC
12:53 AM,43.0,30.9,62,30.06,10.0,Calm,Calm,-,N/A,,Clear,0,2012-03-30 04:53:00
1:53 AM,42.1,30.9,65,30.06,10.0,Calm,Calm,-,N/A,,Clear,0,2012-03-30 05:53:00
2:53 AM,42.1,30.9,65,30.06,10.0,North,4.6,-,N/A,,Clear,350,2012-03-30 06:53:00
3:53 AM,39.9,30.9,70,30.06,10.0,Calm,Calm,-,N/A,,Clear,0,2012-03-30 07:53:00
4:53 AM,39.9,30.0,68,30.08,10.0,North,3.5,-,N/A,,Clear,10,2012-03-30 08:53:00
5:53 AM,35.1,30.0,82,30.09,10.0,Calm,Calm,-,N/A,,Clear,0,2012-03-30 09:53:00
6:53 AM,34.0,30.0,85,30.10,10.0,Calm,Calm,-,N/A,,Clear,0,2012-03-30 10:53:00
7:53 AM,39.2,30.2,70,30.10,10.0,Calm,Calm,-,N/A,,Overcast,0,2012-03-30 11:53:00
8:53 AM,42.1,32.0,67,30.12,10.0,Calm,Calm,-,N/A,,Scattered Clouds,0,2012-03-30 12:53:00
9:53 AM,42.1,30.9,65,30.12,10.0,NE,5.8,-,N/A,,Overcast,40,2012-03-30 13:53:00
10:53 AM,42.1,32.0,67,30.10,10.0,Calm,Calm,-,0.00,,Overcast,0,2012-03-30 14:53:00
11:53 AM,43.0,34.0,71,30.09,10.0,NNE,3.5,-,0.00,,Overcast,20,2012-03-30 15:53:00
12:53 PM,44.1,33.1,65,30.07,10.0,Calm,Calm,-,N/A,,Overcast,0,2012-03-30 16:53:00
1:53 PM,46.4,33.8,62,30.02,10.0,East,3.5,-,N/A,,Overcast,80,2012-03-30 17:53:00
2:53 PM,48.0,35.1,61,30.00,10.0,Calm,Calm,-,N/A,,Overcast,0,2012-03-30 18:53:00
3:53 PM,48.9,35.1,59,29.97,10.0,SE,4.6,-,N/A,,Overcast,140,2012-03-30 19:53:00
4:53 PM,51.1,36.0,56,29.94,10.0,Variable,3.5,-,N/A,,Mostly Cloudy,0,2012-03-30 20:53:00
5:53 PM,52.0,37.0,57,29.92,10.0,East,5.8,-,N/A,,Clear,90,2012-03-30 21:53:00
6:53 PM,50.0,37.9,63,29.91,10.0,East,4.6,-,N/A,,Clear,90,2012-03-30 22:53:00
7:53 PM,48.0,39.0,71,29.89,10.0,Calm,Calm,-,0.00,Rain,Light Rain,0,2012-03-30 23:53:00
8:53 PM,46.0,37.9,73,29.87,10.0,East,3.5,-,N/A,,Partly Cloudy,100,2012-03-31 00:53:00
9:53 PM,46.0,37.0,71,29.87,10.0,Calm,Calm,-,N/A,,Clear,0,2012-03-31 01:53:00
10:53 PM,46.0,37.9,73,29.83,10.0,Calm,Calm,-,N/A,,Clear,0,2012-03-31 02:53:00
11:53 PM,43.0,39.0,86,29.80,10.0,Calm,Calm,-,N/A,,Clear,0,2012-03-31 03:53:00